User: anonymous   Login
Location: Newark
(43.6583°N, 1.6617°E)
Time: 21:05:22
(UTC+00:00)
Language:

Explorer 11/Cluster Stage 4 - Orbit

View from above orbital plane
View from above orbital plane
View from above satellite
View from above satellite

Ground track
Ground track

The orbit data is extracted from the following two-line orbital elements,

1   107U 61013A   19230.92867436 +.00000311 +00000-0 +19312-4 0  9994
2   107 028.7898 095.4744 0547274 202.8111 154.7247 14.08817646923389
Epoch (UTC): 18 August 2019 22:17:17
Eccentricity: 0.0547274
inclination: 28.7898°
perigee height: 467 km
apogee height: 1260 km
right ascension of ascending node: 95.4744°
argument of perigee: 202.8111°
revolutions per day: 14.08817646
mean anomaly at epoch: 154.7247°
orbit number at epoch: 92338

The dashed part of the orbit path shows where the satellite is in the earth's shadow,  

DLR